184P/1986 W1 = 2007 A1 (Lovas 2)

Epoch 2006 Dec. 11.0 TT = JDT 2454080.5  

T 2006 Dec. 12.45250 TT                                 Nakano

q   1.3953462            (2000.0)            P               Q

n   0.14895284     Peri.   77.40229     +0.99683875     +0.07478797

a   3.5245488      Node   278.30411     -0.07925843     +0.91254513

e   0.6041064      Incl.    1.55310     -0.00553286     +0.40207976

P   6.62 (+/- 0.04 day)

From 46 observations 1986-2007, mean residual 0".93.

Residuals in seconds of arc 

1986/                     861204 892  2.4+  0.4+    870303 691  0.4+  0.6+  

861130 561(13.0-  6.8+)   861204 372(11.7+  1.5+)Y  2007/                   

861130 561 (5.8-  3.3+)   861205 801  0.5+  2.3-    070109 703  1.4+  1.2+  

861202 801 (3.4- 10.2+)   861205 373  2.0-  2.5+    070109 703 (2.5+  0.8+) 

861202 691  0.3-  0.5+    861205 373 (3.2-  2.4-)   070109 703 (2.4+  0.2+) 

861202 691  0.0   0.8+    861205 399  1.9-  2.1-    070109 703  0.6+  0.6-  

861202 691  0.2-  0.2-    861206 399  1.6+  0.7+    070109 G96  0.1+  0.1-  

861202 892(11.6-  4.9-)Y  861207 372  1.2-  2.2+ Y  070109 G96  0.3-  0.2-  

861202 892(11.6-  6.9-)Y  1987/                     070109 G96  0.1-  0.4-  

861203 372  1.0+  1.8-    870103 691 (3.6+  1.7-)   070109 G96  0.6-  0.1+  

861203 323  0.0   0.2-    870103 691  0.2+  0.4+    070110 G96  0.7-  0.3+  

861203 372  0.2-  0.4-    870103 691  0.4+  1.3-    070110 G96  0.1-  0.0   

861203 561 (8.2-  7.9+)   870125 691  0.1+  0.8-    070110 G96  0.4+  0.4+  

861204 688  0.0   2.1-    870125 691  0.0   1.3+    070110 734  0.1+  0.2+  

861204 688 (4.1+  5.9-)   870125 691  0.1-  0.4-    070110 734  0.5-  0.4-  

861204 688 (5.6+  3.4+)   870130 691  0.1+  0.1-    070110 734  0.6-  1.4-  

861204 688  1.5+  0.1-    870130 691  0.3-  0.5-    070110 854  1.0-  0.5+  

861204 691  0.4-  1.4+    870130 691  0.8-  0.6-    070110 854  0.6-  0.9+  

861204 691  1.3-  1.0+    870301 691  0.2-  0.1-    070110 854  0.5+  0.5+  

861204 691  0.3+  0.5+    870301 691  0.1-  1.7+    070114 349  1.1+  1.0-  

861204 892 (0.9+  2.9-)   870303 691  0.4+  0.8-    070114 349  0.2+  0.1-  





NAKANO

         **** Don't distribute anyone except personal use only ****

                (C) Copyright 2007 OAA/ComputingSection

write mail from CFAD0::NAKANO on 2007-02-11 07:48:26(JST).

 



◎D/1986 W1の再発見と軌道    [From YC 2542]

  2006年11月に回帰予定のこの彗星が2007年1月9日にカテリナ・スカイ

サーベイでみずがめ座を撮影したCCDフレーム上にコワルスキによって,

偶然再発見された.再発見時,彗星は16等級で,集光ぎみの1'ほどのコマ

があり,中央部の約20"がより明るかった.発見位置の予報軌道(NK 946(

= HICQ 2006))からのずれは,赤経方向に刄ソ=-9o.3,刄ツ=-4o.0で,近

日点通過時刻への補正値は,およそ儺=+18.6日であった.彗星は,初回,

出現後,1993年と2000年の回帰時は,見失われていたが,今回3公転ぶり

に再発見された.

  上尾の門田健一氏による1月14日の追跡観測では,彗星のCCD全光度は,

17.0等であった.



 184P/1986 W1 = 2007 A1 (Lovas 2)  [bヘ,暫定]

Epoch 2006 Dec. 11.0 TT = JDT 2454080.5  

T 2006 Dec. 12.45250 TT                                 Nakano

q   1.3953462            (2000.0)            P               Q

n   0.14895284     Peri.   77.40229     +0.99683875     +0.07478797

a   3.5245488      Node   278.30411     -0.07925843     +0.91254513

e   0.6041064      Incl.    1.55310     -0.00553286     +0.40207976

P   6.62 (+/- 0.04 day)

From 46 observations 1986-2007, mean residual 0".93.

 

Date/        TT  R.A.(2000) Decl.     Delta   r     Daily motion  Mag.  Moon Age

              h    h  m       。  ,                      ,  / PA 。  m1      。

2007 Jan. 20 12  23 29.48  -02 00.2   1.841  1.463    51.0 /  67  14.0   35  .02

          21 12  23 32.61  -01 40.5   1.848  1.466    50.9 /  67  14.0   21  .07

          22 12  23 35.74  -01 20.7   1.856  1.470    50.8 /  67  14.0    8  .14

          23 12  23 38.85  -01 01.0   1.863  1.473    50.7 /  67  14.1    6  .23

          24 12  23 41.96  -00 41.2   1.871  1.477    50.5 /  67  14.1   19  .34

          25 12  23 45.07  -00 21.6   1.879  1.480    50.4 /  67  14.1   33  .45

          26 12  23 48.16  -00 01.9   1.887  1.484    50.3 /  67  14.2   46  .56

          27 12  23 51.25  +00 17.7   1.895  1.488    50.2 /  67  14.2   59  .67

          28 12  23 54.33  +00 37.3   1.903  1.492    50.1 /  67  14.2   72  .77

          29 12  23 57.41  +00 56.8   1.911  1.496    49.9 /  67  14.3   84  .85

          30 12  00 00.47  +01 16.3   1.919  1.500    49.8 /  67  14.3   97  .92

          31 12  00 03.53  +01 35.7   1.927  1.504    49.7 /  67  14.4  109  .97

     Feb.  1 12  00 06.58  +01 55.0   1.936  1.508    49.5 /  67  14.4  121  .99

           2 12  00 09.63  +02 14.3   1.944  1.512    49.4 /  67  14.4  133 1.00

           3 12  00 12.66  +02 33.5   1.953  1.516    49.2 /  67  14.5  144  .98

           4 12  00 15.69  +02 52.7   1.962  1.520    49.1 /  67  14.5  156  .95

           5 12  00 18.71  +03 11.7   1.971  1.525    48.9 /  67  14.6  167  .90

           6 12  00 21.72  +03 30.7   1.980  1.529    48.8 /  67  14.6  178  .84

           7 12  00 24.73  +03 49.6   1.989  1.534    48.6 /  67  14.6  171  .76

           8 12  00 27.73  +04 08.3   1.998  1.538    48.5 /  67  14.7  160  .68

           9 12  00 30.72  +04 27.0   2.007  1.543    48.3 /  67  14.7  149  .59

          10 12  00 33.70  +04 45.6   2.016  1.548    48.2 /  67  14.8  137  .49

          11 12  00 36.68  +05 04.1   2.026  1.552    48.0 /  67  14.8  126  .39

          12 12  00 39.65  +05 22.5   2.035  1.557    47.8 /  68  14.8  114  .30

          13 12  00 42.61  +05 40.8   2.045  1.562    47.7 /  68  14.9  102  .21

          14 12  00 45.56  +05 59.0   2.054  1.567    47.5 /  68  14.9   90  .13

          15 12  00 48.51  +06 17.0   2.064  1.572    47.4 /  68  15.0   77  .06

          16 12  00 51.45  +06 34.9   2.074  1.577    47.2 /  68  15.0   63  .02

          17 12  00 54.38  +06 52.8   2.084  1.582    47.0 /  68  15.1   49  .00

          18 12  00 57.31  +07 10.4   2.094  1.587    46.8 /  68  15.1   35  .01

          19 12  01 00.23  +07 28.0   2.104  1.592    46.7 /  68  15.2   21  .05

          20 12  01 03.14  +07 45.4   2.114  1.597    46.5 /  68  15.2    7  .11

          21 12  01 06.04  +08 02.7   2.124  1.602    46.3 /  68  15.3    7  .20

          22 12  01 08.94  +08 19.9   2.134  1.607    46.1 /  68  15.3   21  .30

          23 12  01 11.83  +08 36.9   2.144  1.613    46.0 /  68  15.3   34  .41

          24 12  01 14.71  +08 53.8   2.155  1.618    45.8 /  68  15.4   47  .52

          25 12  01 17.59  +09 10.6   2.165  1.623    45.6 /  69  15.4   60  .63

          26 12  01 20.46  +09 27.2   2.176  1.629    45.4 /  69  15.5   72  .73

          27 12  01 23.32  +09 43.6   2.186  1.634    45.2 /  69  15.5   84  .81

          28 12  01 26.17  +09 59.9   2.197  1.640    45.0 /  69  15.6   96  .89

     Mar.  1 12  01 29.02  +10 16.1   2.208  1.645    44.9 /  69  15.6  108  .94

NAKANO

         **** Don't distribute anyone except personal use only ****

                (C) Copyright 2007 OAA/ComputingSection

write mail from CFAD0::NAKANO on 2007-01-23 04:25:29(JST).

 



 184P/1986 W1 = 2007 A1 (Lovas)   [Temporary numbered]

Epoch 2006 Dec. 11.0 TT = JDT 2454080.5  

T 2006 Dec. 12.45483 TT                                 Nakano

q   1.3953845            (2000.0)            P               Q

n   0.14895224     Peri.   77.40258     +0.99684103     +0.07475751

a   3.5245583      Node   278.30558     -0.07923061     +0.91254726

e   0.6040966      Incl.    1.55312     -0.00552048     +0.40208061

P   6.62 (+/- 0.06 day)

From 44 observations 1986-2007, mean residual 0".94.

                           



NAKANO

         **** Don't distribute anyone except personal use only ****

                (C) Copyright 2007 OAA/ComputingSection

write mail from CFAD0::NAKANO on 2007-01-11 23:59:04(JST).

 





戻ります。